Zurück zum Katalog

STARLINK-37815

AktivKommunikationSSO
NORAD 69434·PAYLOAD·🇺🇸 United States

Gestartet Jun 7, 2026 von Vandenberg Space Force Base

Loading…

Nächste Überflüge (nächste 24 Stunden)

TLE

AktuellSource: CelesTrak SupGP

Epoche: Sep 14, 2026, 21:07 UTC

1 69434C 26126Q   26257.88034722  .00015370  00000+0  47730-3 0  2575
2 69434  97.2849 119.1352 0001628  91.9094 114.2835 15.33418337    11

Verfolge STARLINK-37815 in Echtzeit mit AllMySat

Download on the App Store